This demonstration page uses our WeatherBlox Daily Observations layout. Learn more.

Left ArrowRight Arrow

44.89941, -97.11507

Hourly Observations for August 31, 2016

Temp ( °F °C ) Dew Point ( °F °C ) Humidity (%) Winds ( mph kmh ) Pressure ( in mb ) Visibility ( mi km ) Precip ( " mm )
12:53 am 00:53 Clear 62 16.7 57 13.9 84 84 Calm 30.20 1023 10 16 0.00 0.00
1:53 am 01:53 Mostly Clear 60 15.6 55 12.8 84 84 Calm 30.21 1023 10 16 0.00 0.00
2:53 am 02:53 Mostly Clear 59 15 55 12.8 87 87 Calm 30.20 1023 10 16 0.00 0.00
3:53 am 03:53 Mostly Clear 59 15 55 12.8 87 87 Calm 30.20 1023 10 16 0.00 0.00
4:53 am 04:53 Clear 58 14.4 54 12.2 87 87 Calm 30.21 1023 10 16 0.00 0.00
5:53 am 05:53 Clear 57 13.9 54 12.2 90 90 Calm 30.21 1023 10 16 0.00 0.00
6:53 am 06:53 Sunny 56 13.3 53 11.7 90 90 Calm 30.24 1024 10 16 0.00 0.00
7:53 am 07:53 Mostly Sunny 58 14.4 55 12.8 90 90 Calm 30.26 1025 10 16 0.00 0.00
8:53 am 08:53 Sunny 61 16.1 57 13.9 87 87 NE 3 6 30.24 1024 10 16 0.00 0.00
9:53 am 09:53 Sunny 68 20 58 14.4 70 70 Calm 30.23 1024 10 16 0.00 0.00
10:53 am 10:53 Sunny 72 22.2 55 12.8 55 55 Calm 30.24 1024 10 16 0.00 0.00
11:53 am 11:53 Mostly Sunny 75 23.9 54 12.2 48 48 VRB 5 7 30.23 1024 10 16 0.00 0.00
12:53 pm 12:53 Sunny 77 25 52 11.1 42 42 SW 5 7 30.22 1023 10 16 0.00 0.00
1:53 pm 13:53 Sunny 79 26.1 53 11.7 41 41 VRB 6 9 30.20 1023 10 16 0.00 0.00
2:53 pm 14:53 Sunny 80 26.7 54 12.2 41 41 WSW 6 9 30.20 1023 10 16 0.00 0.00
3:53 pm 15:53 Sunny 81 27.2 52 11.1 37 37 WSW 7 11 30.19 1022 10 16 0.00 0.00
4:53 pm 16:53 Sunny 80 26.7 53 11.7 39 39 WSW 3 6 30.17 1022 10 16 0.00 0.00
5:53 pm 17:53 Sunny 81 27.2 55 12.8 41 41 S 6 9 30.16 1021 10 16 0.00 0.00
6:53 pm 18:53 Sunny 78 25.6 58 14.4 50 50 SSE 6 9 30.16 1021 10 16 0.00 0.00
7:53 pm 19:53 Sunny 74 23.3 58 14.4 57 57 E 7 11 30.18 1022 10 16 0.00 0.00
8:53 pm 20:53 Clear 72 22.2 58 14.4 61 61 E 6 9 30.19 1022 10 16 0.00 0.00
9:53 pm 21:53 Clear 69 20.6 58 14.4 68 68 ESE 5 7 30.20 1023 10 16 0.00 0.00
10:53 pm 22:53 Clear 67 19.4 58 14.4 73 73 SE 5 7 30.20 1023 10 16 0.00 0.00
11:53 pm 23:53 Clear 66 18.9 58 14.4 75 75 SE 3 6 30.19 1023 10 16 0.00 0.00

Powered by AerisWeather